Satellite: NO-44
Catalog number: 26931
Epoch time:      10006.80399849
Element set:    0358
Inclination:      067.0526 deg
RA of node:       259.7623 deg
Eccentricity:    0.0006914
Arg of perigee:   264.3454 deg
Mean anomaly:     095.6868 deg
Mean motion:   14.29578131 rev/day
Decay rate:      -1.10e-06 rev/day^2
Epoch rev:           43168
Checksum:              328

Satellite: SO-50
Catalog number: 27607
Epoch time:      10006.46595008
Element set:      72
Inclination:      064.5585 deg
RA of node:       127.7050 deg
Eccentricity:    0.0043120
Arg of perigee:   148.4983 deg
Mean anomaly:     211.8718 deg
Mean motion:   14.71487059 rev/day
Decay rate:       -9.9e-07 rev/day^2
Epoch rev:           37858
Checksum:              317

Satellite: CO-55
Catalog number: 27844
Epoch time:      10006.53368056
Element set:    0752
Inclination:      098.7106 deg
RA of node:       017.8172 deg
Eccentricity:    0.0009214
Arg of perigee:   279.1843 deg
Mean anomaly:     080.8289 deg
Mean motion:   14.20676926 rev/day
Decay rate:        4.8e-07 rev/day^2
Epoch rev:           33813
Checksum:              318

Satellite: CO-57
Catalog number: 27848
Epoch time:      10007.73734849
Element set:     702
Inclination:      098.7160 deg
RA of node:       018.0767 deg
Eccentricity:    0.0008928
Arg of perigee:   279.4350 deg
Mean anomaly:     080.5805 deg
Mean motion:   14.20473591 rev/day
Decay rate:        5.0e-08 rev/day^2
Epoch rev:           33826
Checksum:              321

Satellite: AO-51
Catalog number: 28375
Epoch time:      10006.53268591
Element set:    0574
Inclination:      098.0533 deg
RA of node:       009.3074 deg
Eccentricity:    0.0082948
Arg of perigee:   228.0438 deg
Mean anomaly:     131.3663 deg
Mean motion:   14.40664677 rev/day
Decay rate:        8.0e-08 rev/day^2
Epoch rev:           29023
Checksum:              306

Satellite: CO-56
Catalog number: 28941
Epoch time:      09297.68475575
Element set:     556
Inclination:      098.0955 deg
RA of node:       138.9518 deg
Eccentricity:    0.0011688
Arg of perigee:   319.8691 deg
Mean anomaly:     040.7485 deg
Mean motion:   16.46998778 rev/day
Decay rate:  1.4491492e-01 rev/day^2
Epoch rev:           20790
Checksum:              407

Satellite: GENESAT1
Catalog number: 29655
Epoch time:      10006.32159783
Element set:    0912
Inclination:      040.0209 deg
RA of node:       345.6268 deg
Eccentricity:    0.0005320
Arg of perigee:   240.6856 deg
Mean anomaly:     119.3428 deg
Mean motion:   15.71879384 rev/day
Decay rate:     2.2792e-04 rev/day^2
Epoch rev:           17437
Checksum:              307

Satellite: CP3
Catalog number: 31129
Epoch time:      10007.81556225
Element set:     449
Inclination:      097.9630 deg
RA of node:       055.7932 deg
Eccentricity:    0.0103017
Arg of perigee:   011.7083 deg
Mean anomaly:     348.6440 deg
Mean motion:   14.52197454 rev/day
Decay rate:        9.0e-07 rev/day^2
Epoch rev:           14458
Checksum:              287

Satellite: CO-65
Catalog number: 32785
Epoch time:      10007.22850728
Element set:     571
Inclination:      097.9178 deg
RA of node:       074.2202 deg
Eccentricity:    0.0016082
Arg of perigee:   088.7609 deg
Mean anomaly:     271.5440 deg
Mean motion:   14.81566915 rev/day
Decay rate:       4.10e-06 rev/day^2
Epoch rev:            9165
Checksum:              309

Satellite: KKS-1
Catalog number: 33493
Epoch time:      10007.71531435
Element set:      96
Inclination:      098.0698 deg
RA of node:       126.0358 deg
Eccentricity:    0.0019003
Arg of perigee:   302.2914 deg
Mean anomaly:     057.6470 deg
Mean motion:   14.80815274 rev/day
Decay rate:       3.00e-06 rev/day^2
Epoch rev:            5173
Checksum:              272

Satellite: SOHLA-1
Catalog number: 33496
Epoch time:      10006.78241139
Element set:     993
Inclination:      098.0480 deg
RA of node:       118.0797 deg
Eccentricity:    0.0006725
Arg of perigee:   005.6802 deg
Mean anomaly:     354.4462 deg
Mean motion:   14.69462564 rev/day
Decay rate:       -1.9e-07 rev/day^2
Epoch rev:            5117
Checksum:              303

/EX
SB KEPS @ AMSAT  $ORB10007.W
Orbital Elements  10007.WEATHER

HR AMSAT ORBITAL ELEMENTS FOR WEATHER SATELLITES
FROM WA5QGD FORT WORTH,TX January 7, 2010
Send Subscribe/unsubscribe to KEPS at 
http://www.amsat.org/mailman/listinfo/keps
BID: ORB10007.W
TO ALL RADIO AMATEURS BT

Satellite: NOAA-10
Catalog number: 16969
Epoch time:      10007.49127082
Element set:     908
Inclination:      098.6735 deg
RA of node:       037.8330 deg
Eccentricity:    0.0011781
Arg of perigee:   324.0456 deg
Mean anomaly:     035.9944 deg
Mean motion:   14.27403255 rev/day
Decay rate:       -4.3e-07 rev/day^2
Epoch rev:           21265
Checksum:              296

Satellite: NOAA-11
Catalog number: 19531
Epoch time:      10007.50514062
Element set:     920
Inclination:      098.7768 deg
RA of node:       099.2414 deg
Eccentricity:    0.0010909
Arg of perigee:   244.3920 deg
Mean anomaly:     115.6139 deg
Mean motion:   14.14913252 rev/day
Decay rate:       2.98e-06 rev/day^2
Epoch rev:            9841
Checksum:              289

